This is the latest recevied weather packets stored in our database for station/object W4DHW-4. If no packets are shown the sender has not sent any weather packets the latest 10 day(s).
| Time | Temp. | Humidity | Pressure | Rain* | Wind** | Luminosity | Snow |
|---|---|---|---|---|---|---|---|
| 1777487701 | 16.67° C | 90% | 1010.6 hPa | 0 mm | - | 130 W/m² | - |
| 1777487397 | 16.67° C | 90% | 1010.8 hPa | 0 mm | - | 111 W/m² | - |
| 1777487095 | 16.67° C | 92% | 1010.9 hPa | 0 mm | - | 99 W/m² | - |
| 1777486790 | 16.67° C | 92% | 1010.8 hPa | 0 mm | - | 75 W/m² | - |
| 1777486489 | 16.11° C | 92% | 1010.7 hPa | 0 mm | - | 103 W/m² | - |
| 1777486186 | 16.11° C | 92% | 1010.9 hPa | 0 mm | - | 131 W/m² | - |
| 1777485884 | 16.11° C | 92% | 1011 hPa | 0 mm | - | 134 W/m² | - |
| 1777485578 | 16.67° C | 92% | 1010.9 hPa | 0 mm | - | 65 W/m² | - |
| 1777485275 | 16.67° C | 92% | 1011.1 hPa | 0 mm | - | 57 W/m² | - |
| 1777484971 | 16.67° C | 92% | 1010.9 hPa | 0 mm | - | 217 W/m² | - |
| 1777484668 | 16.67° C | 92% | 1010.9 hPa | 0 mm | - | 317 W/m² | - |
| 1777484365 | 16.67° C | 92% | 1011.1 hPa | 0 mm | - | 264 W/m² | - |
| 1777484061 | 16.67° C | 92% | 1011.5 hPa | 0 mm | - | 259 W/m² | - |
| 1777483757 | 16.67° C | 93% | 1011.5 hPa | 0 mm | - | 319 W/m² | - |
| 1777483454 | 16.67° C | 94% | 1011.4 hPa | 0 mm | - | 350 W/m² | - |
| 1777483149 | 16.67° C | 95% | 1011.5 hPa | 0 mm | - | 414 W/m² | - |
| 1777482846 | 16.11° C | 95% | 1011.6 hPa | 0 mm | - | 408 W/m² | - |
| 1777482541 | 16.11° C | 95% | 1011.6 hPa | 0 mm | - | 313 W/m² | - |
| 1777482239 | 16.11° C | 95% | 1011.9 hPa | 0 mm | - | 293 W/m² | - |
| 1777481936 | 16.11° C | 95% | 1011.9 hPa | 0 mm | - | 245 W/m² | - |
| 1777481634 | 16.11° C | 96% | 1012.1 hPa | 1.78 mm | - | 241 W/m² | - |
| 1777481331 | 16.11° C | 95% | 1012.5 hPa | 1.78 mm | - | 202 W/m² | - |
| 1777481027 | 15.56° C | 95% | 1012.1 hPa | 1.78 mm | - | 171 W/m² | - |
| 1777480724 | 15.56° C | 95% | 1012.6 hPa | 0 mm | - | 161 W/m² | - |
| 1777480421 | 15.56° C | 95% | 1012.7 hPa | 0 mm | - | 168 W/m² | - |
* Rain latest hour (hover to see other rain measurements)
** Current wind speed in m/s (hover to see current wind gust speed)